GW7030 Weather Reports


time (UTC)temp
F
wind
direction
speed
knots
gust
knots
rain 1hr
in
rain 24hr
in
rain mn
in
humidity
%
barometer
mb
20260504215022 71 110 0.0 1.7 0.00 0.00 0.00 54 1014.2
20260504214620 72 108 0.0 3.5 0.00 0.00 0.00 51 1014.3
20260504214024 72 119 0.0 3.5 0.00 0.00 0.00 54 1014.3
20260504213522 72 108 0.0 2.6 0.00 0.00 0.00 50 1014.6
20260504213104 73 140 0.9 2.6 0.00 0.00 0.00 51 1014.5
20260504212523 74 119 0.9 3.5 0.00 0.00 0.00 51 1014.5
20260504212021 73 129 1.7 3.5 0.00 0.00 0.00 53 1014.5
20260504211604 71 129 0.9 3.5 0.00 0.00 0.00 54 1014.5
20260504211016 71 102 0.0 2.6 0.00 0.00 0.00 51 1014.5
20260504210521 73 132 0.9 3.5 0.00 0.00 0.00 52 1014.5
20260504210104 73 113 0.9 3.5 0.00 0.00 0.00 51 1014.6
20260504205517 73 119 0.9 3.5 0.00 0.00 0.00 53 1014.6
20260504205022 73 123 0.9 3.5 0.00 0.00 0.00 50 1014.6
20260504204555 74 104 0.9 3.5 0.00 0.00 0.00 49 1014.6
20260504204016 74 142 1.7 3.5 0.00 0.00 0.00 52 1014.6
20260504203517 74 130 0.9 3.5 0.00 0.00 0.00 49 1014.4
20260504203050 73 154 1.7 3.5 0.00 0.00 0.00 52 1014.4
20260504202518 72 151 1.7 3.5 0.00 0.00 0.00 49 1014.4
20260504202016 71 153 1.7 3.5 0.00 0.00 0.00 52 1014.4
20260504201612 71 131 0.9 3.5 0.00 0.00 0.00 50 1014.4
20260504201027 71 169 1.7 3.5 0.00 0.00 0.00 55 1014.4
20260504200532 71 135 0.9 3.5 0.00 0.00 0.00 50 1014.4
20260504195516 71 144 1.7 3.5 0.00 0.00 0.00 51 1014.6
20260504195019 71 146 0.9 3.5 0.00 0.00 0.00 51 1014.4
20260504194552 70 145 0.9 2.6 0.00 0.00 0.00 52 1014.4
20260504194029 70 156 1.7 3.5 0.00 0.00 0.00 50 1014.4
20260504193524 70 140 0.9 3.5 0.00 0.00 0.00 50 1014.5
20260504193026 69 138 0.9 3.5 0.00 0.00 0.00 53 1014.4
20260504192518 69 162 1.7 3.5 0.00 0.00 0.00 52 1014.4
20260504192013 69 131 0.9 3.5 0.00 0.00 0.00 52 1014.5
20260504191605 69 152 1.7 3.5 0.00 0.00 0.00 54 1014.4
20260504191018 68 150 1.7 2.6 0.00 0.00 0.00 55 1014.4
20260504190522 68 144 0.9 3.5 0.00 0.00 0.00 54 1014.4
20260504190121 67 141 0.0 2.6 0.00 0.00 0.00 52 1014.5
20260504185515 67 150 1.7 2.6 0.00 0.00 0.00 54 1014.5
20260504185019 67 84 0.0 2.6 0.00 0.00 0.00 53 1014.5
20260504184535 67 144 0.9 2.6 0.00 0.00 0.00 56 1014.5
20260504184041 67 108 0.9 2.6 0.00 0.00 0.00 56 1014.5
20260504183514 67 113 0.0 2.6 0.00 0.00 0.00 55 1014.5
20260504183501 67 92 0.0 2.6 0.00 0.00 0.00 58 1014.4
20260504182520 67 119 0.0 2.6 0.00 0.00 0.00 57 1014.4
20260504182021 67 146 0.9 2.6 0.00 0.00 0.00 55 1014.4
20260504181549 67 131 0.0 2.6 0.00 0.00 0.00 55 1014.4
20260504181017 67 142 0.0 2.6 0.00 0.00 0.00 56 1014.5
20260504180517 67 142 0.9 2.6 0.00 0.00 0.00 59 1014.5
20260504180054 67 142 0.9 2.6 0.00 0.00 0.00 56 1014.3
20260504175521 66 143 0.9 2.6 0.00 0.00 0.00 58 1014.4
20260504175016 66 142 0.9 2.6 0.00 0.00 0.00 58 1014.3
20260504174555 66 134 0.9 1.7 0.00 0.00 0.00 56 1014.3
20260504174019 66 128 0.0 1.7 0.00 0.00 0.00 54 1014.2
20260504173517 65 146 0.9 1.7 0.00 0.00 0.00 55 1014.2
20260504173050 65 149 0.0 2.6 0.00 0.00 0.00 55 1014.1
20260504172521 65 149 0.9 2.6 0.00 0.00 0.00 54 1014.1
20260504172016 65 149 0.0 1.7 0.00 0.00 0.00 53 1014.1
20260504171556 64 149 0.9 1.7 0.00 0.00 0.00 54 1014.1
20260504171016 64 149 0.9 1.7 0.00 0.00 0.00 53 1014.1
20260504170515 64 150 0.0 1.7 0.00 0.00 0.00 54 1014.2
20260504151010 63 5 0.0 2.6 0.00 0.00 0.00 45 1013.5
20260504150516 63 5 0.9 2.6 0.00 0.00 0.00 47 1013.6
20260504150104 63 306 0.0 0.9 0.00 0.00 0.00 48 1013.6
20260504141022 63 306 0.0 0.9 0.00 0.00 0.00 44 1013.5
20260504140516 63 306 0.0 0.9 0.00 0.00 0.00 44 1013.4
20260504140109 63 306 0.0 0.9 0.00 0.00 0.00 44 1013.4
20260504130638 63 306 0.0 0.9 0.00 0.00 0.00 43 1013.4
20260504130122 63 306 0.0 0.9 0.00 0.00 0.00 42 1013.4
20260504110515 65 306 0.0 1.7 0.00 0.00 0.00 40 1013.4
20260504100532 65 306 0.0 0.9 0.00 0.00 0.00 41 1013.4
20260504081552 66 306 0.0 0.9 0.00 0.00 0.00 37 1013.6
20260504081017 66 306 0.0 1.7 0.00 0.00 0.00 36 1013.7
20260504080519 66 306 0.0 1.7 0.00 0.00 0.00 36 1013.6
20260504050520 68 306 0.0 1.7 0.00 0.00 0.00 33 1013.9
20260504045516 67 306 0.9 1.7 0.00 0.00 0.00 33 1014.0
20260504045025 67 306 0.9 1.7 0.00 0.00 0.00 34 1014.0
20260504044603 67 306 0.9 1.7 0.00 0.00 0.00 35 1014.0
20260504044017 67 306 0.9 1.7 0.00 0.00 0.00 36 1014.0
20260504043516 67 306 0.0 1.7 0.00 0.00 0.00 36 1014.0
20260504043115 67 306 0.0 1.7 0.00 0.00 0.00 36 1014.1
20260504042517 67 306 0.0 1.7 0.00 0.00 0.00 37 1014.0
20260504042016 67 306 0.0 1.7 0.00 0.00 0.00 36 1014.0
20260504041556 67 306 0.0 1.7 0.00 0.00 0.00 35 1013.9
20260504041027 67 306 0.0 1.7 0.00 0.00 0.00 36 1014.0
20260504040518 67 306 0.0 1.7 0.00 0.00 0.00 36 1013.9
20260504040105 67 306 0.0 1.7 0.00 0.00 0.00 37 1013.9
20260504035520 67 306 0.0 1.7 0.00 0.00 0.00 36 1013.9
20260504035019 67 306 0.0 1.7 0.00 0.00 0.00 36 1013.9
20260504034558 67 306 0.0 1.7 0.00 0.00 0.00 37 1013.9
20260504034022 67 312 0.0 0.9 0.00 0.00 0.00 37 1013.9
20260504033521 67 312 0.0 1.7 0.00 0.00 0.00 37 1013.9
20260504033109 67 312 0.0 1.7 0.00 0.00 0.00 36 1013.9
20260504032522 67 312 0.0 1.7 0.00 0.00 0.00 36 1013.9
20260504032021 67 312 0.0 1.7 0.00 0.00 0.00 37 1013.9
20260504031557 67 310 0.0 0.9 0.00 0.00 0.00 37 1014.0
20260504031020 67 310 0.0 0.9 0.00 0.00 0.00 37 1013.9
20260504030519 67 310 0.0 1.7 0.00 0.00 0.00 38 1014.0
20260504030119 67 310 0.0 1.7 0.00 0.00 0.00 37 1014.0
20260504025527 67 334 0.0 0.9 0.00 0.00 0.00 37 1014.0
20260504025131 67 334 0.0 0.9 0.00 0.00 0.00 39 1014.0
20260504024554 67 334 0.0 0.9 0.00 0.00 0.00 38 1014.1
20260504024019 67 334 0.0 0.9 0.00 0.00 0.00 38 1014.1
20260504023515 67 334 0.0 0.9 0.00 0.00 0.00 36 1014.1
20260504023314 67 334 0.0 0.9 0.00 0.00 0.00 37 1014.1
20260504022514 67 334 0.0 0.9 0.00 0.00 0.00 37 1014.1
20260504022015 67 334 0.0 0.9 0.00 0.00 0.00 36 1014.1
20260504021609 67 334 0.0 0.9 0.00 0.00 0.00 36 1014.0
20260504021016 68 334 0.0 0.9 0.00 0.00 0.00 37 1014.1
20260504020515 68 334 0.0 0.0 0.00 0.00 0.00 38 1014.1
20260504020107 68 334 0.0 0.9 0.00 0.00 0.00 38 1014.1
20260504015615 68 334 0.0 0.9 0.00 0.00 0.00 37 1014.1
20260504015017 68 334 0.0 0.0 0.00 0.00 0.00 38 1014.2
20260504014614 68 334 0.0 0.0 0.00 0.00 0.00 38 1014.3
20260504014016 68 334 0.0 0.0 0.00 0.00 0.00 38 1014.3
20260504013518 68 334 0.0 0.0 0.00 0.00 0.00 39 1014.4
20260504013106 69 334 0.0 0.9 0.00 0.00 0.00 37 1014.4
20260504012518 69 334 0.0 0.9 0.00 0.00 0.00 37 1014.4
20260504012016 69 334 0.0 0.9 0.00 0.00 0.00 36 1014.6
20260504011610 69 334 0.0 0.9 0.00 0.00 0.00 35 1014.6
20260504011021 70 2 0.0 0.9 0.00 0.00 0.00 36 1014.7
20260504010515 70 19 0.0 2.6 0.00 0.00 0.00 34 1014.8
20260504010315 70 21 0.0 2.6 0.00 0.00 0.00 34 1014.7
20260504005518 70 308 0.0 0.9 0.00 0.00 0.00 35 1014.8
20260504005018 71 308 0.0 1.7 0.00 0.00 0.00 35 1014.9
20260504004549 71 34 0.0 1.7 0.00 0.00 0.00 34 1014.9
20260504004019 71 38 0.0 1.7 0.00 0.00 0.00 34 1014.9
20260504003522 71 38 0.0 1.7 0.00 0.00 0.00 34 1014.9
20260504003053 71 38 0.0 1.7 0.00 0.00 0.00 33 1014.9
20260504002515 71 39 0.0 1.7 0.00 0.00 0.00 33 1014.9
20260504002016 71 39 0.0 2.6 0.00 0.00 0.00 34 1014.9
20260504001814 71 40 0.0 2.6 0.00 0.00 0.00 33 1014.8
20260504001018 71 26 0.0 2.6 0.00 0.00 0.00 33 1014.9
20260504000517 71 25 0.0 2.6 0.00 0.00 0.00 32 1014.9
20260504000057 71 30 0.0 2.6 0.00 0.00 0.00 35 1015.0
20260503235519 71 38 0.0 2.6 0.00 0.00 0.00 33 1015.1
20260503235015 71 305 0.0 2.6 0.00 0.00 0.00 31 1015.1
20260503234550 71 40 0.0 2.6 0.00 0.00 0.00 35 1015.1
20260503234013 72 40 0.9 2.6 0.00 0.00 0.00 34 1015.1
20260503233519 72 40 0.0 2.6 0.00 0.00 0.00 36 1015.3
20260503233052 72 40 0.9 2.6 0.00 0.00 0.00 35 1015.3
20260503232518 72 41 0.0 2.6 0.00 0.00 0.00 34 1015.4
20260503232018 72 41 0.0 2.6 0.00 0.00 0.00 34 1015.4
20260503231550 72 41 0.9 2.6 0.00 0.00 0.00 36 1015.4
20260503231018 73 63 0.0 2.6 0.00 0.00 0.00 37 1015.5
20260503230515 73 38 0.0 2.6 0.00 0.00 0.00 36 1015.6
20260503230058 73 56 0.0 2.6 0.00 0.00 0.00 37 1015.8
20260503225516 73 98 0.0 2.6 0.00 0.00 0.00 39 1015.6
20260503225015 74 98 0.9 2.6 0.00 0.00 0.00 39 1015.8
20260503224539 74 129 0.0 2.6 0.00 0.00 0.00 36 1015.9
20260503224017 75 129 0.9 2.6 0.00 0.00 0.00 37 1016.0
20260503223522 75 97 0.9 3.5 0.00 0.00 0.00 34 1015.9
20260503223051 75 71 0.9 3.5 0.00 0.00 0.00 36 1016.0
20260503222515 76 102 0.0 2.6 0.00 0.00 0.00 32 1016.0
20260503222016 77 139 1.7 2.6 0.00 0.00 0.00 37 1016.1
20260503221546 78 113 0.9 3.5 0.00 0.00 0.00 37 1015.9
20260503221017 78 117 1.7 3.5 0.00 0.00 0.00 36 1016.1
20260503220515 78 133 1.7 3.5 0.00 0.00 0.00 38 1016.3
20260503220050 78 125 1.7 3.5 0.00 0.00 0.00 36 1016.3
20260503215517 78 144 1.7 3.5 0.00 0.00 0.00 38 1016.1